Probability
3 2 1 1 1 1 0 0 0 0 0 0 0 0 0 0 0 0 0 0 0 0 0 1 2 1 0 0 0 0 0 0 0 0 0 0 0 0 0 0 0 0 0 0 0 0 0 0 0
1 1 1 1 1 0 0 0 0 0 0 0 0 0 0 0 0 0 0 0 0 0 0 1 2 1 0 0 0 0 0 0 0 0 0 0 0 0 0 0 0 0 0 0 0 0 0 0 0
0 0 1 1 0 0 0 1 2 1 0 0 0 0 0 0 0 0 0 0 0 0 0 1 2 1 0 0 0 0 0 0 0 0 0 0 0 0 0 0 0 0 0 0 0 0 0 0 0
0 0 0 0 0 0 1 2 3 4 2 1 0 0 0 0 0 0 0 0 0 0 0 2 2 1 0 0 0 0 0 0 0 0 0 0 0 0 0 0 0 0 0 0 0 0 0 0 0
1 1 0 0 0 1 2 3 5 5 4 2 1 0 0 0 1 1 1 0 0 0 0 1 3 3 1 1 1 0 0 0 0 0 0 0 0 0 0 0 0 0 0 0 0 0 0 0 0
0 0 0 0 0 1 2 3 5 7 5 2 1 0 0 1 3 4 2 1 0 0 1 1 2 3 2 2 1 0 0 0 0 0 0 0 0 0 0 0 0 0 0 0 0 0 0 0 0
0 0 0 0 0 0 1 2 5 7 5 2 1 0 0 2 6 7 4 2 0 1 2 2 2 1 1 1 1 0 0 0 0 0 0 0 0 0 0 0 0 0 0 0 0 0 0 0 0
1 1 0 0 0 0 0 1 3 5 4 3 2 2 2 4 9 10 7 2 0 1 2 3 1 0 0 0 0 0 0 0 0 0 0 0 0 0 0 0 0 0 0 0 0 0 0 0 0
2 1 0 0 0 0 0 0 1 2 4 4 5 6 7 11 16 18 13 6 2 1 1 1 0 0 0 0 0 0 0 0 0 0 0 0 0 0 0 0 0 0 0 0 0 0 0 0 0
3 2 0 0 0 0 0 0 1 1 3 5 8 9 12 18 23 25 21 14 7 2 0 0 0 0 0 0 0 0 0 0 0 0 0 0 0 0 0 0 0 0 0 0 0 0 0 0 0
3 2 1 0 0 0 0 0 1 2 3 7 11 12 14 18 22 25 24 20 12 4 0 0 0 0 0 0 0 0 0 0 0 0 0 0 0 0 0 0 0 0 0 0 0 0 0 0 0
2 2 1 0 0 1 1 1 1 2 4 9 12 13 14 15 17 19 21 21 16 8 3 1 1 1 0 0 1 1 1 0 0 0 0 1 1 1 0 0 0 0 0 0 0 0 0 0 0
1 1 0 0 0 1 1 1 1 3 6 9 13 14 13 12 13 15 17 18 16 12 8 5 3 1 0 0 1 2 1 0 0 0 1 2 2 2 1 0 0 0 0 0 0 0 0 0 0
0 0 0 0 0 0 1 2 4 8 9 9 10 12 10 10 11 13 16 17 17 17 16 12 6 3 0 0 1 1 1 0 0 1 1 3 3 2 1 0 0 1 1 0 0 0 0 0 0
0 0 0 0 0 1 2 4 7 12 12 9 9 9 8 9 11 14 17 19 20 23 22 17 12 7 3 2 1 1 0 0 0 1 2 3 4 3 2 2 1 2 2 1 1 0 0 0 0
0 0 0 0 0 1 3 5 8 14 15 12 10 10 9 10 13 16 20 22 24 26 24 20 15 11 8 6 4 3 1 0 1 2 3 4 6 6 5 4 3 3 3 2 1 0 0 0 0
0 0 0 0 0 0 2 4 9 14 18 16 14 13 12 12 16 21 23 25 26 26 24 20 17 15 12 9 6 4 3 2 2 3 5 6 7 8 7 5 4 3 3 1 1 1 0 0 0
0 0 0 0 0 0 1 4 9 14 18 19 17 18 18 19 23 27 29 28 26 25 24 22 20 17 14 11 7 5 4 4 4 5 7 8 8 8 6 4 3 3 2 1 0 1 0 0 0
0 0 0 0 0 1 3 6 9 13 17 20 21 24 27 27 28 32 34 32 28 26 27 27 25 21 19 16 12 9 6 5 5 6 7 8 9 8 6 4 3 3 1 0 0 0 0 0 0
0 0 0 0 0 2 5 7 8 11 14 19 22 27 33 33 32 36 39 37 33 30 31 31 30 28 25 23 20 16 10 6 6 6 6 7 9 10 7 4 3 2 1 1 1 1 1 1 0
0 0 0 0 0 2 4 5 6 8 12 17 22 29 36 37 37 38 39 39 38 36 35 34 33 32 30 27 26 23 16 10 8 7 8 9 11 11 9 6 4 3 3 3 3 2 2 2 1
0 0 0 0 0 1 1 1 3 7 11 16 24 32 38 39 39 38 37 39 42 42 40 39 37 35 33 30 29 27 21 14 10 9 9 10 11 11 10 7 6 5 5 5 4 3 3 3 2
0 0 0 0 0 0 0 0 2 5 10 16 23 30 35 38 36 35 36 38 40 43 43 41 39 36 34 32 29 25 21 15 11 9 10 10 10 10 10 8 7 6 5 4 3 2 2 2 2
0 0 0 0 0 0 0 0 1 3 8 14 19 23 31 37 36 34 36 38 39 42 41 39 37 35 34 32 28 23 19 14 10 9 9 8 8 9 9 8 6 4 4 2 1 1 1 1 1
0 0 0 0 0 0 0 0 0 2 6 12 18 24 31 39 39 36 37 41 44 43 39 36 35 34 32 31 28 24 19 15 11 10 10 9 10 10 9 7 5 3 2 1 0 0 0 0 0
0 0 0 0 0 0 0 0 1 3 6 12 20 28 34 40 42 39 39 42 44 42 39 36 34 33 31 29 26 24 21 16 13 12 11 11 11 11 9 7 6 4 2 1 0 0 0 1 1
0 0 0 0 0 0 0 0 1 4 7 12 20 28 35 39 42 41 40 38 37 37 36 36 35 33 31 27 25 24 23 19 16 15 13 12 11 10 10 9 8 7 4 2 1 1 0 0 0
0 0 0 0 0 0 0 0 1 4 8 13 17 24 33 38 40 40 38 32 29 30 33 34 36 35 31 28 27 27 25 22 19 17 15 12 10 10 9 9 8 7 5 3 2 1 0 1 1
0 0 0 0 0 0 0 0 1 4 9 13 15 21 32 37 37 36 33 28 26 28 32 35 37 36 33 30 29 28 26 23 20 18 15 12 10 10 9 8 7 5 3 3 2 1 0 1 2
0 0 0 0 0 0 0 1 2 5 9 13 16 21 31 36 35 34 31 27 26 30 34 36 38 37 34 32 30 28 25 22 20 17 15 12 11 10 9 8 6 4 2 2 2 1 0 1 1
Wind_Speed
3 3 1 1 5 6 6 5 9 10 7 8 11 11 10 8 7 9 5 13 14 10 8 11 13 14 14 14 14 14 14 14 14 14 14 14 15 15 15 15 14 14 14 14 14 15 14 14 14
2 2 1 3 6 6 4 7 13 12 12 13 13 13 11 10 11 12 8 13 13 11 8 10 14 14 14 14 14 14 14 14 14 14 14 14 14 14 14 14 14 13 14 14 13 13 13 13 12
2 1 3 4 4 6 5 8 14 13 11 10 8 8 7 9 11 8 10 15 12 10 7 10 15 14 14 14 13 13 13 13 13 13 13 13 13 13 13 13 13 13 13 13 13 12 12 11 11
1 3 4 4 5 5 8 9 14 14 11 10 10 8 6 8 8 13 17 16 13 9 7 10 15 15 14 13 13 13 13 13 13 13 12 12 12 12 13 12 12 12 12 12 11 11 10 10 10
3 4 5 4 5 7 9 11 12 11 7 10 12 10 7 7 18 19 17 16 14 10 7 9 15 15 14 13 13 12 12 12 12 12 12 12 12 12 12 12 12 11 11 11 10 10 9 9 8
3 4 4 3 6 6 7 11 14 16 15 14 13 10 6 12 19 17 16 14 13 11 8 9 15 15 14 13 13 12 12 12 11 11 11 11 11 11 11 11 11 10 10 9 9 8 8 7 7
4 3 2 5 6 7 7 10 13 14 14 10 10 9 7 11 16 16 15 13 11 10 8 6 7 10 13 13 12 12 11 11 10 10 10 11 11 10 10 10 9 9 9 8 7 7 6 6 5
5 4 2 3 6 6 8 7 11 14 10 13 9 9 10 13 15 15 14 12 11 9 7 6 6 5 5 7 11 11 11 10 10 10 10 10 10 9 9 8 8 8 8 7 6 5 4 3 3
4 5 3 5 6 5 9 11 7 8 11 7 5 8 14 18 19 16 13 10 9 9 7 7 7 6 5 5 8 9 10 9 9 8 9 7 3 4 4 6 8 7 7 6 5 4 2 1 1
4 4 5 6 7 7 11 13 9 7 9 8 12 12 15 17 18 17 15 13 11 11 9 8 8 7 6 6 5 3 4 4 4 3 4 3 3 3 4 6 7 7 6 5 4 3 2 1 0
3 5 3 4 7 8 9 8 6 11 8 13 19 17 15 16 15 15 14 14 13 13 11 9 9 8 7 4 4 3 2 3 3 4 4 3 3 2 2 2 3 3 4 2 2 2 1 1 1
1 2 3 4 6 7 8 7 7 7 10 15 17 17 14 14 13 13 13 12 11 11 11 10 10 8 7 6 5 4 3 3 3 4 5 4 2 3 3 2 2 2 1 2 2 1 2 3 2
1 0 2 5 7 8 9 8 8 7 13 15 15 14 13 13 10 9 11 11 11 11 10 10 10 9 7 6 5 5 4 4 4 4 5 5 4 4 3 3 3 3 2 2 3 3 3 2 2
2 1 2 3 5 8 12 7 7 9 16 16 15 13 12 12 11 9 9 9 10 10 9 9 9 8 7 6 4 4 5 4 4 4 5 6 4 4 4 4 3 3 3 3 3 4 3 3 2
2 4 4 1 3 5 11 5 6 14 17 16 15 13 12 11 10 11 12 11 10 10 9 9 9 8 7 6 5 4 4 4 4 4 5 6 5 5 4 4 3 3 3 3 3 3 2 2 2
4 4 1 4 2 4 10 5 6 14 17 15 14 13 12 10 11 11 11 9 9 10 10 9 9 8 7 5 4 3 3 3 3 4 4 5 6 5 4 4 3 3 3 2 2 2 2 2 2
5 1 2 4 2 4 7 6 8 11 14 14 13 13 12 10 10 10 12 12 10 11 10 9 7 7 6 5 3 2 2 2 3 3 3 5 5 5 4 4 3 3 2 2 3 2 2 2 2
3 2 2 3 3 6 6 6 10 11 13 13 12 11 11 12 12 12 12 12 11 10 10 8 7 7 6 4 2 1 1 1 2 3 4 5 4 5 4 4 4 3 2 2 2 2 2 2 2
3 2 3 4 3 5 7 8 10 11 10 11 11 11 11 11 9 10 11 11 10 9 8 8 8 7 5 3 2 2 2 1 1 2 4 4 4 5 4 4 3 3 3 4 4 2 2 2 1
3 2 3 2 1 3 5 4 6 10 12 13 15 14 13 9 8 9 10 11 11 10 9 8 8 7 6 4 3 2 2 2 2 2 1 3 3 4 5 5 4 4 4 4 4 3 2 2 2
3 3 3 3 2 4 5 2 2 6 6 7 11 12 13 14 13 12 11 11 10 10 10 9 7 7 6 5 3 1 1 1 0 1 1 2 2 3 3 5 5 4 4 4 5 4 4 3 2
5 4 3 2 3 1 3 2 6 5 4 7 9 10 12 12 11 10 10 10 12 11 9 8 7 7 6 6 4 4 3 3 3 2 2 2 3 3 4 4 5 5 4 4 5 5 4 4 3
6 3 2 2 4 2 2 3 7 2 4 7 9 12 13 12 12 12 11 11 10 9 8 7 6 6 6 6 6 5 3 3 2 1 1 2 3 3 4 4 4 4 4 4 4 4 4 4 4
2 4 7 6 6 1 4 3 6 5 10 9 8 10 11 12 12 12 10 8 7 7 7 7 6 5 6 6 5 5 5 3 2 2 2 2 2 3 3 3 3 3 3 4 4 4 4 4 4
5 7 5 5 5 5 4 2 9 8 9 10 10 9 9 10 11 10 10 9 9 9 8 7 7 6 5 5 5 5 5 4 4 3 3 2 2 2 3 3 3 3 4 4 3 3 4 4 4
5 11 9 5 5 5 3 4 8 5 5 7 8 8 9 9 9 11 11 10 10 10 9 8 8 6 6 5 5 4 4 3 2 2 2 2 2 2 2 2 3 3 3 3 3 3 3 3 3
5 5 9 8 2 0 4 5 6 2 2 5 7 8 8 9 10 10 9 8 8 8 7 8 8 6 6 6 5 4 4 3 3 2 1 1 1 1 1 1 2 2 1 2 2 2 2 1 2
8 8 7 6 4 2 4 3 4 3 5 5 6 8 8 8 9 10 8 8 7 7 6 6 6 6 4 4 4 4 3 3 2 2 1 1 0 1 1 2 2 2 1 1 1 1 0 1 0
4 4 6 5 6 7 2 7 7 8 8 8 7 8 9 8 9 10 9 8 8 7 7 6 6 5 4 4 3 3 2 2 2 1 1 1 1 1 2 2 2 3 3 2 2 2 2 1 1
8 8 9 6 4 5 4 8 7 5 6 8 8 8 9 8 9 9 9 8 7 7 6 6 5 5 4 4 4 3 3 3 3 2 1 1 1 2 2 2 3 3 3 3 3 3 3 2 2
Wind_Direction
246 239 183 58 52 58 80 94 97 85 67 65 77 82 82 65 102 125 133 132 133 131 127 122 118 114 110 107 105 102 101 99 98 97 97 98 99 100 101 100 99 99 100 101 102 102 103 104 106
234 209 105 56 75 79 74 96 93 95 115 105 83 81 75 71 88 113 125 135 133 130 127 126 123 118 114 111 108 105 103 102 101 100 100 101 102 103 103 102 101 101 102 104 104 105 106 106 107
256 193 78 67 97 120 114 107 110 107 108 99 92 71 74 106 115 121 137 139 131 126 126 133 127 122 119 116 113 110 107 107 105 104 104 103 104 105 106 105 105 104 105 106 106 106 106 107 107
45 44 47 70 108 129 127 123 116 107 83 78 92 75 74 113 119 132 138 137 130 128 131 136 130 127 124 121 118 115 113 112 110 108 108 107 108 108 109 109 109 109 109 109 108 107 105 105 105
73 66 50 64 93 102 114 118 117 103 86 88 91 93 78 93 121 132 138 138 134 134 136 137 135 133 131 128 125 123 121 118 116 114 112 112 112 111 111 113 114 113 112 112 111 108 105 102 101
54 65 73 93 101 107 112 115 107 101 108 106 103 101 100 127 132 138 140 138 137 139 138 140 141 139 137 135 133 131 128 125 123 121 120 118 116 116 116 118 119 119 118 118 116 113 109 102 97
116 98 125 130 119 123 130 126 119 125 126 124 124 107 123 143 142 141 138 135 136 139 140 140 145 143 143 142 140 138 135 133 131 129 127 125 124 124 123 124 125 126 127 127 124 121 116 109 101
148 103 94 119 125 134 137 118 130 132 119 131 133 131 153 157 143 137 134 134 137 142 147 147 143 142 144 147 149 147 145 143 142 140 137 135 134 132 131 131 133 135 137 138 137 134 126 116 109
121 89 139 164 142 147 128 113 116 110 126 148 125 132 149 143 137 135 133 136 145 151 161 161 156 155 154 159 162 158 156 156 155 152 151 143 130 129 137 146 146 145 148 152 155 157 155 147 122
106 129 194 179 153 147 134 128 127 106 110 102 106 119 134 137 141 143 149 157 162 166 174 172 168 169 170 172 159 165 167 163 164 164 159 150 156 169 164 164 163 161 162 169 180 194 218 241 302
140 161 174 142 143 136 131 130 116 121 129 146 143 145 144 143 147 152 160 165 169 171 173 176 175 176 178 171 167 179 176 172 181 184 179 170 168 168 162 164 173 177 181 192 215 236 260 261 233
140 194 142 137 130 128 134 131 118 135 156 154 148 148 146 150 155 159 163 168 167 170 176 174 178 178 182 175 179 181 183 186 190 194 185 173 167 168 171 181 185 189 196 208 225 239 257 263 250
81 118 105 123 123 124 118 124 123 126 136 144 146 147 152 156 159 160 160 163 163 168 173 173 173 176 177 174 186 182 190 195 194 191 187 178 173 177 180 187 192 199 200 203 219 229 241 244 245
270 52 81 107 109 119 118 117 109 138 143 150 155 160 164 165 164 158 158 160 163 164 166 169 168 170 169 170 178 178 187 191 189 188 186 180 176 177 176 183 193 204 203 206 212 223 223 229 227
357 49 20 30 113 127 111 91 141 152 152 159 166 170 173 174 170 168 168 164 164 161 161 165 167 166 165 166 170 170 175 176 185 190 188 182 178 178 176 182 192 208 203 199 211 227 222 231 223
20 46 27 285 142 145 112 152 177 158 159 166 175 178 180 181 179 173 167 163 165 159 160 167 168 163 165 164 164 166 166 167 184 188 187 186 184 179 173 180 196 203 200 190 200 206 212 232 227
17 24 270 280 223 135 113 164 181 170 168 174 180 182 182 183 182 176 171 168 171 168 165 169 165 164 165 164 163 168 161 173 182 185 189 192 189 182 176 188 200 194 194 200 216 199 195 217 229
253 254 273 238 230 128 129 175 178 179 178 183 185 185 185 186 188 179 176 174 172 170 167 167 163 168 165 158 148 147 159 189 184 189 201 197 194 188 182 193 204 192 185 203 208 211 215 216 220
225 249 246 245 207 129 152 173 187 185 186 185 189 189 188 192 188 175 174 173 167 168 168 169 166 172 162 152 156 165 196 208 215 214 208 203 202 199 194 201 206 199 200 208 208 202 220 234 201
241 279 272 285 271 124 148 172 192 187 193 191 190 187 184 180 180 178 175 173 172 174 175 174 173 173 170 168 166 171 177 202 214 226 203 203 203 204 207 202 203 202 206 219 216 202 201 231 183
268 218 217 223 347 42 88 16 224 218 212 202 195 188 182 182 187 184 181 181 175 178 178 179 178 171 172 167 150 141 95 345 281 248 221 227 223 227 223 209 206 207 204 216 220 207 199 215 226
256 239 179 158 100 269 123 193 265 222 221 202 196 189 188 187 182 183 184 183 181 183 178 168 168 169 171 165 162 164 176 204 223 215 218 235 234 234 232 221 213 211 209 216 223 212 205 194 219
229 222 139 126 119 38 24 134 273 226 208 217 203 194 191 185 176 180 187 189 183 176 171 162 161 173 173 170 175 180 196 210 218 210 220 249 256 251 247 234 221 220 216 218 221 213 210 204 207
189 51 32 43 67 11 249 161 266 220 206 205 203 190 186 179 174 174 172 167 162 160 161 156 162 177 178 175 179 186 194 203 209 212 218 249 260 262 261 247 231 226 223 227 223 214 211 215 216
107 90 41 7 16 257 260 164 244 236 206 188 184 179 174 171 169 164 161 163 160 158 162 165 171 178 182 183 184 188 189 191 200 209 217 237 255 266 267 260 243 232 225 222 215 213 221 216 215
170 136 150 178 208 273 320 225 254 249 199 166 159 154 154 161 162 164 169 169 166 167 167 168 173 180 181 188 192 187 184 189 203 208 209 222 232 248 264 269 263 250 228 219 207 210 223 221 223
156 168 163 137 159 327 290 288 310 17 117 137 136 134 148 158 161 164 164 161 161 165 167 169 172 174 177 186 184 180 183 187 196 203 200 218 251 264 297 296 294 280 236 215 191 203 222 216 225
162 153 100 112 141 232 291 277 242 220 176 158 142 139 145 158 162 157 151 152 152 154 147 155 159 167 167 171 176 179 187 189 186 174 171 182 282 0 20 7 1 4 36 72 108 119 132 114 356
160 133 118 126 151 151 218 266 233 199 182 167 161 150 147 153 154 150 151 154 149 145 146 152 156 153 153 160 161 153 156 153 148 143 161 126 61 51 46 36 43 46 49 54 69 71 86 105 64
171 173 145 150 205 160 163 264 270 184 169 147 146 145 142 146 147 143 143 139 138 140 143 147 150 154 156 150 140 132 120 114 110 103 97 91 70 55 58 59 58 50 50 57 65 65 60 70 65